www.pogodaiklimat.ru

Погода и климат >> Архив погоды >> Австралия >> Квинсленд >> Ричмонд аэропорт


ПОГОДА в Ричмонд аэропорту

  • Прогноз погоды в Ричмонд аэропорту
  • Монитор погоды в Ричмонд аэропорту

АРХИВ ПОГОДЫ в Ричмонд аэропорту

Время (UTC), дата Ветер
(напр.,м/с)
 
Видим.   Явления Облачность Т
(С)
Тd
(С)
f
(%)
Тe
(С)
Тes
(С)
Комфортность P
(гПа)
Po
(гПа)
Тmin
(С)
Tmax
(С)
R
(мм)
R24
(мм)
S
(см)
14 20.05 В 5 н/о н/о +20.5 +12.0 58 +22 +22 комфорт 1019.0 995.0 +29.9
15 20.05 В 4 н/о н/о +19.3 +12.1 63 +20 +20 1018.7 994.7
17 20.05 В 4 н/о н/о +17.1 +11.6 70 +17 +17 1018.3 994.3
18 20.05 ЮВ 4 н/о н/о +16.5 +11.9 74 +16 +16 1018.1 994.1
20 20.05 В 4 н/о н/о +15.7 +11.5 76 +15 +15 1018.8 994.8
21 20.05 В 4 н/о н/о +15.5 +11.5 77 +15 +15 1019.4 995.4
23 20.05 В 5 н/о н/о +21.9 +14.0 61 +25 +25 комфорт 1020.4 996.4
00 21.05 В 7 н/о н/о +25.0 +12.9 47 +27 +27 жарко 1020.7 996.7
02 21.05 В 7 н/о н/о +27.7 +12.9 40 +29 +29 жарко 1019.4 995.4 +15.3
03 21.05 В 7 н/о н/о +28.8 +10.9 33 +29 +29 жарко 1018.2 994.2
05 21.05 В 6 н/о н/о +29.3 +10.4 31 +29 +29 жарко 1016.4 992.5
06 21.05 В 7 н/о н/о +28.9 +11.0 33 +29 +29 жарко 1016.1 992.2
08 21.05 В 4 н/о н/о +25.5 +12.0 43 +27 +27 жарко 1016.8 992.9
09 21.05 ЮВ 5 н/о н/о +24.0 +12.6 49 +26 +26 жарко 1017.5 993.5
11 21.05 В 5 н/о н/о +22.5 +13.3 56 +25 +25 комфорт 1019.1 995.1
12 21.05 В 6 н/о н/о +22.4 +13.2 56 +25 +25 комфорт 1019.3 995.3
14 21.05 В 4 н/о н/о +19.9 +12.7 63 +22 +22 комфорт 1019.9 995.9 +30.2
15 21.05 ЮВ 3 н/о н/о +16.5 +11.4 72 +16 +16 1019.8 995.8
17 21.05 В 4 н/о н/о +16.7 +12.7 77 +16 +16 1019.2 995.2
18 21.05 В 3 н/о н/о +17.0 +12.5 75 +17 +17 1019.3 995.3
20 21.05 ЮВ 3 н/о н/о +14.4 +11.9 85 +13 +13 1020.1 996.1
21 21.05 В 4 н/о н/о +14.7 +12.4 86 +14 +14 1020.6 996.6
23 21.05 В 5 н/о н/о +22.0 +14.4 62 +25 +25 комфорт 1021.6 997.5
00 22.05 В 7 н/о н/о +24.8 +12.1 45 +26 +26 жарко 1021.6 997.5
02 22.05 В 9 н/о н/о +28.4 +10.1 32 +29 +29 жарко 1020.0 996.0 +14.3
03 22.05 В 7 н/о н/о +29.1 +9.8 30 +29 +29 жарко 1019.0 995.0
05 22.05 В 7 н/о н/о +29.6 +9.2 28 +29 +29 жарко 1017.6 993.6
06 22.05 В 7 н/о н/о +29.1 +8.7 28 +29 +29 жарко 1017.3 993.3
08 22.05 ЮВ 6 н/о н/о +25.4 +8.0 33 +26 +26 жарко 1018.1 994.1
09 22.05 ЮВ 7 н/о н/о +24.4 +8.8 37 +25 +25 комфорт 1018.8 994.8
11 22.05 ЮВ 7 н/о н/о +22.8 +10.3 45 +25 +25 комфорт 1019.9 995.9
12 22.05 В 6 н/о н/о +22.3 +10.8 48 +24 +24 комфорт 1019.9 995.9
14 22.05 В 6 н/о 8/0
[]
+20.5 +11.2 55 +22 +22 комфорт 1019.9 995.9 +30.6
15 22.05 В 6 н/о н/о +20.1 +11.6 58 +22 +22 комфорт 1019.5 995.5
17 22.05 ЮВ 6 н/о н/о +19.1 +12.1 64 +20 +20 1018.7 994.7
18 22.05 В 5 н/о н/о +18.9 +13.3 70 +20 +20 1018.8 994.8
20 22.05 В 4 н/о 6/0
[]
+18.3 +14.4 78 +19 +19 1019.1 995.1
21 22.05 ЮВ 4 н/о н/о +16.7 +13.6 82 +16 +16 1019.6 995.6
23 22.05 В 6 н/о н/о +22.0 +14.9 64 +25 +25 комфорт 1020.9 996.9
00 23.05 В 6 н/о н/о +24.5 +14.3 53 +27 +27 жарко 1020.7 996.7
02 23.05 В 7 н/о н/о +28.0 +11.1 35 +29 +29 жарко 1019.3 995.3 +16.6
03 23.05 В 6 н/о н/о +29.0 +11.6 34 +30 +30 жарко 1018.3 994.3
05 23.05 В 6 н/о 6/0 2000 м
[]
+28.7 +10.4 32 +29 +31 жарко 1016.7 992.8
06 23.05 ЮВ 7 н/о н/о +28.5 +10.2 32 +29 +29 жарко 1016.6 992.7
08 23.05 ЮВ 5 н/о 8/0
[]
+26.4 +9.7 35 +27 +27 жарко 1017.4 993.4
09 23.05 ЮВ 6 н/о н/о +25.1 +10.2 39 +26 +26 жарко 1017.8 993.8
11 23.05 В 7 н/о н/о +23.2 +10.3 44 +25 +25 комфорт 1018.8 994.8
12 23.05 В 5 н/о н/о +22.5 +10.6 47 +24 +24 комфорт 1018.9 994.9
14 23.05 ЮВ 4 н/о 9/0 2000 м
[]
+20.3 +11.0 55 +22 +22 комфорт 1018.6 994.6 +30.8
15 23.05 В 4 н/о н/о +18.7 +10.8 60 +19 +19 1018.2 994.2
17 23.05 В 4 н/о 4/0
[]
+19.0 +11.1 60 +20 +20 1017.4 993.4
18 23.05 ЮВ 5 н/о н/о +18.5 +11.3 63 +19 +19 1017.5 993.5
20 23.05 В 5 н/о 10/0
[]
+19.3 +10.6 57 +20 +20 1018.0 994.0
21 23.05 В 5 н/о н/о +19.7 +10.9 57 +21 +21 комфорт 1018.5 994.5
23 23.05 В 3 н/о 9/0
[]
+22.3 +13.4 57 +25 +27 комфорт 1019.2 995.2
00 24.05 В 5 н/о н/о +24.5 +14.0 52 +27 +27 жарко 1019.0 995.0
02 24.05 В 5 н/о 4/0
[]
+26.8 +13.5 44 +29 +34 жарко 1017.5 993.5 +17.6
03 24.05 В 5 н/о н/о +28.8 +11.4 34 +29 +29 жарко 1016.4 992.5
05 24.05 В 3 н/о 1/0
[]
+29.6 +9.2 28 +29 +35 жарко 1015.0 991.1
06 24.05 В 5 н/о н/о +28.6 +9.3 30 +29 +29 жарко 1014.9 991.0
08 24.05 ЮВ 4 н/о 10/0
[]
+26.2 +9.1 34 +27 +27 жарко 1015.7 991.8
09 24.05 В 4 н/о н/о +25.6 +9.0 35 +26 +26 жарко 1016.2 992.3
11 24.05 ЮВ 5 н/о 9/0
[]
+23.3 +8.6 39 +25 +25 комфорт 1017.0 993.1
12 24.05 ЮВ 5 н/о н/о +22.2 +9.4 44 +24 +24 комфорт 1017.3 993.3
14 24.05 В 4 н/о н/о +19.8 +10.0 53 +21 +21 комфорт 1016.7 992.8 +30.2
15 24.05 В 4 н/о н/о +18.1 +10.0 59 +18 +18 1016.6 992.7
17 24.05 ЮВ 3 н/о н/о +15.0 +10.0 72 +14 +14 1016.1 992.2
18 24.05 В 4 н/о н/о +16.1 +10.4 69 +16 +16 1016.1 992.2
20 24.05 В 3 н/о 10/0
[]
+17.7 +11.5 67 +18 +18 1016.2 992.3
21 24.05 В 3 н/о н/о +17.5 +11.5 68 +17 +17 1016.8 992.9
23 24.05 В 4 н/о 10/0
[]
+23.0 +14.6 59 +27 +28 душно 1017.6 993.6
00 25.05 В 5 н/о н/о +25.7 +13.9 48 +28 +28 жарко 1017.4 993.4
02 25.05 ЮВ 5 н/о н/о +28.3 +11.8 36 +29 +29 жарко 1016.0 992.1 +14.8
03 25.05 В 5 н/о н/о +29.5 +9.1 28 +29 +29 жарко 1014.9 991.0
05 25.05 ЮВ 6 н/о 8/0
[]
+29.0 +10.2 31 +29 +31 жарко 1013.5 989.6
06 25.05 В 5 н/о н/о +29.2 +10.3 31 +29 +29 жарко 1013.3 989.4
08 25.05 ЮВ 4 н/о 9/0
[]
+27.0 +11.5 38 +28 +28 жарко 1014.1 990.2
09 25.05 В 5 н/о н/о +25.8 +13.3 46 +28 +28 жарко 1014.9 991.0
11 25.05 В 5 н/о 1/0
[]
+23.2 +14.7 59 +27 +27 душно 1016.3 992.4
12 25.05 В 5 н/о н/о +22.6 +14.7 61 +26 +26 жарко 1016.4 992.5
14 25.05 В 5 н/о 1/0
[]
+20.7 +14.6 68 +24 +24 комфорт 1016.3 992.4 +30.6
15 25.05 В 5 н/о н/о +19.5 +14.7 74 +21 +21 комфорт 1016.0 992.1
17 25.05 В 3 н/о н/о +17.5 +14.0 80 +17 +17 1015.4 991.5
18 25.05 В 3 н/о н/о +16.9 +14.5 86 +17 +17 1015.4 991.5
20 25.05 В 2 н/о н/о +16.8 +14.6 87 +17 +17 1015.5 991.6
21 25.05 ЮВ 3 н/о н/о +14.7 +12.7 88 +14 +14 1016.3 992.4
23 25.05 СВ 3 н/о н/о +22.2 +16.2 69 +26 +26 душно 1017.2 993.2
00 26.05 В 3 н/о н/о +24.6 +15.8 58 +28 +28 душно 1017.4 993.4
02 26.05 ЮВ 4 н/о н/о +26.9 +13.3 43 +29 +29 жарко 1015.5 991.6 +14.6
03 26.05 Ю 4 н/о н/о +28.2 +13.3 40 +30 +30 жарко 1014.5 990.6
05 26.05 В 4 н/о 9/0
[]
+28.8 +10.0 31 +29 +32 жарко 1013.3 989.4
06 26.05 В 2 н/о н/о +28.8 +10.0 31 +29 +29 жарко 1013.2 989.3
08 26.05 ЮВ 3 н/о 8/0
[]
+26.0 +11.7 41 +27 +27 жарко 1013.9 990.0
09 26.05 В 5 н/о н/о +25.0 +12.9 47 +27 +27 жарко 1014.9 991.0
11 26.05 В 5 н/о н/о +23.5 +12.8 51 +26 +26 жарко 1015.8 991.9
12 26.05 ЮВ 4 н/о н/о +21.5 +12.4 56 +24 +24 комфорт 1015.9 992.0
14 26.05 В 4 н/о н/о +19.2 +12.5 65 +20 +20 1015.4 991.5 +30.6
15 26.05 ЮВ 4 н/о н/о +17.4 +11.9 70 +17 +17 1015.4 991.5
17 26.05 В 4 н/о н/о +17.0 +12.5 75 +17 +17 1015.1 991.2
18 26.05 ЮВ 3 н/о н/о +15.5 +11.7 78 +15 +15 1015.5 991.6
20 26.05 ЮВ 3 н/о н/о +14.9 +11.9 82 +14 +14 1015.8 991.9
21 26.05 ЮВ 3 н/о н/о +15.1 +12.1 82 +14 +14 1016.5 992.6
23 26.05 В 5 н/о н/о +21.7 +14.4 63 +25 +25 комфорт 1017.9 993.9
00 27.05 В 5 н/о н/о +24.6 +15.0 55 +27 +27 жарко 1018.2 994.2
02 27.05 ЮВ 6 н/о 1/1 1500 м
[]
+28.3 +12.6 38 +30 +34 жарко 1016.7 992.8 +14.4
03 27.05 ЮВ 7 н/о н/о +28.3 +11.8 36 +29 +29 жарко 1015.6 991.7
05 27.05 В 5 н/о 10/0 2000 м
[]
+27.6 +10.8 35 +28 +30 жарко 1014.5 990.6
06 27.05 Ю 5 н/о н/о +27.8 +10.5 34 +28 +28 жарко 1014.3 990.4
08 27.05 ЮВ 4 н/о 10/0 2000 м
[]
+26.6 +9.9 35 +27 +27 жарко 1014.8 990.9
09 27.05 В 3 н/о н/о +23.7 +12.0 48 +25 +25 комфорт 1015.7 991.8
11 27.05 Ю 4 н/о 4/4 1500 м
[]
+20.8 +12.8 60 +23 +23 комфорт 1017.3 993.3
12 27.05 Ю 4 н/о н/о +18.8 +12.1 65 +20 +20 1017.3 993.3

 

Местоположение метеостанции Ричмонд аэропорт (Квинсленд, Австралия): широта -20.70 долгота 143.11 высота над уровнем моря 207 м.

В архиве по умолчанию представлена погода в Ричмонд аэропорту за последнюю неделю. Архивные данные за месяц целиком и за предыдущие месяцы, начиная с января 2011 года, Вы можете получить, выбрав интересующий диапазон дат из раскрывающегося списка и нажав кнопку "Ввод!".


*Определитесь, кто Вы:
робот инопланетянин человек

Внимание! Время в таблицах - всемирное. Для получения местного времени необходимо прибавить поправку, которая равна 10 ч.

Смотрите также архив погоды в соседних городах и на ближайших метеорологических станциях:

Погода в Хьюэндене (Квинсленд, Австралия) (117 км)
Погода в Джулия Крик (Квинсленд, Австралия) (144 км)
Погода в Уинтоне (Квинсленд, Австралия) (186 км)
Погода в Аэропорту Трепелл (Квинсленд, Австралия) (263 км)
Погода в Джорджтауне (Квинсленд, Австралия) (271 км)
Погода в Клонкарри (Квинсленд, Австралия) (272 км)
Погода в Лонгриче (Квинсленд, Австралия) (327 км)
Погода в Фосфат-Хилл (Квинсленд, Австралия) (353 км)
Погода на Озере Джулиус (Квинсленд, Австралия) (358 км)
Погода на Маунт-Айза (Квинсленд, Австралия) (378 км)

Пояснения к столбцам:

Ветер - указаны скорость ветра в м/с - средняя за 10 мин, порывы в срок и между сроками (в фигурных скобках) и направление, откуда дует ветер: С - северный, СВ - северо-восточный, В - восточный, ЮВ - юго-восточный, Ю - южный, ЮЗ - юго-западный, З - западный, СЗ - северо-западный.
Видимость - горизонтальная дальность видимости в метрах или километрах. При видимости от 1 до 10 км при отсутствии осадков обычно наблюдается дымка, при ухудшении видимости до 1 км и менее - туман. В сухую погоду видимость может ухудшаться дымом, пылью или мглою.
Явления - указаны атмосферные явления, наблюдавшиеся в срок или в последний час перед сроком; фигурными скобками обозначены явления, наблюдавшиеся между сроками (за 1-3 часа до срока); квадратными скобками обозначены град или гололедные отложения с указанием их диаметра в мм.
Облачность - указаны через наклонную черту общая и нижняя облачность в баллах и высота нижней границы облаков в метрах; квадратными скобками обозначены формы облаков: Ci - перистые, Cs - перисто-слоистые, Cc - перисто-кучевые, Ac - высококучевые, As - высокослоистые, Sc - слоисто-кучевые, Ns - слоисто-дождевые, Cu - кучевые, Cb - кучево-дождевые. Подробнее классификацию облаков см. в Атласе облаков (PDF).
T - Температура воздуха - температура, измеренная на высоте 2 м над землей.
Td - Температура точки росы - температура, при понижении до которой содержащийся в воздухе водяной пар достигнет насыщения.
f - Относительная влажность воздуха - влажноcть воздуха, измеренная на высоте 2 м над землей.
Te - Эффективная температура - температура, которую ощущает одетый по сезону человек в тени. Характеристика душности погоды. При расчете учитывается влияние влажности воздуха и скорости ветра на теплоощущения человека.
Tes - Эффективная температура на солнце - температура, которую ощущает человек, с поправкой на солнечный нагрев. Характеристика знойности погоды. Зависит от высоты солнца над горизонтом, облачности и скорости ветра. Ночью, в пасмурную погоду, а также при ветре 12 м/с и более поправка равна нулю.
P - Атмосферное давление - приведенное к уровню моря атмосферное давление.
Po - Атмосферное давление - измеренное на уровне метеостанции атмосферное давление.
Tmin - Минимальная температура - минимум температуры воздуха на высоте 2 м над землей.
Tmax - Максимальная температура - максимум температуры воздуха на высоте 2 м над землей.
R - Количество осадков - Количество выпавших осадков за период времени, мм. При наведении курсора мыши на число - период времени, за который выпало указанное количество осадков.
R24 - Количество осадков - Количество выпавших осадков за 24 часа, мм.
S - Снежный покров - Высота снежного покрова, см. При наведении курсора мыши на число - состояние снежного покрова и степень покрытия местности в баллах.